Estherville, IA

8:56 PM CST on January 22, 2018 (GMT -0600)
Estherville Municipal

Weather History for KEST - October, 2012

Change the Weather History Date:

Thursday, October 4, 2012

  Actual Average Record
Temperature  
Mean Temperature 44 °F 53 °F  
Max Temperature 56 °F 66 °F 86 °F (2011)
Min Temperature 32 °F 40 °F 26 °F (1950)
Degree Days  
Heating Degree Days 21 13  
Month to date heating degree days 48 48  
Since 1 July heating degree days 245 256  
Cooling Degree Days 0 1  
Month to date cooling degree days 0 4  
Year to date cooling degree days 886 591  
Moisture  
Dew Point 33 °F    
Average Humidity 59    
Maximum Humidity 76    
Minimum Humidity 41    
Precipitation  
Precipitation 0.00 in 0.10 in 2.11 in (2016)
Month to date precipitation 0.00 0.42  
Sea Level Pressure  
Sea Level Pressure 30.10 in    
Wind  
Wind Speed 22 mph (WNW)    
Max Wind Speed 32 mph    
Max Gust Speed 38 mph    
Visibility 10 miles    
Events      
T = Trace of Precipitation, MM = Missing Value Source: NWS Daily Summary

Daily Weather History Graph

Daily Weather History Graph

Search for Another Location

Airport or City:

Trip Planner

Search our weather history database for the weather conditions in past years. The results will help you decide how hot, cold, wet, or windy it might be!

Date:

Astronomy

Oct. 04, 2012 Rise Set
Actual Time 7:20 AM CDT 6:53 PM CDT
Civil Twilight 6:51 AM CDT 7:22 PM CDT
Nautical Twilight 6:18 AM CDT 7:55 PM CDT
Astronomical Twilight 5:45 AM CDT 8:28 PM CDT
Moon 9:22 PM CDT (10/4) 11:46 AM CDT (10/4)
Length of Visible Light 12h 30m
Length of Day
11h 33m
Waning Gibbous, 82% of the Moon is Illuminated
Oct 4
Waning Gibbous
Oct 8
Last Quarter
Oct 15
New
Oct 21
First Quarter
Oct 29
Full

Hourly Weather History & Observations

Time (CDT) Temp. Windchill Dew Point Humidity Pressure Visibility Wind Dir Wind Speed Gust Speed Precip Events Conditions
12:52 AM 55.9 °F - 35.1 °F 45% 29.85 in 10.0 mi SW 19.6 mph 26.5 mph N/A   Clear
1:07 AM 53.6 °F - 37.4 °F 54% 29.86 in 7.0 mi West 24.2 mph 33.4 mph N/A   Clear
2:52 AM 48.9 °F - 39.9 °F 71% 29.91 in 9.0 mi West 20.7 mph 34.5 mph N/A   Scattered Clouds
3:52 AM 46.9 °F - 37.9 °F 71% 29.93 in 9.0 mi WNW 24.2 mph 32.2 mph N/A   Partly Cloudy
4:34 AM 46.4 °F 38.1 °F 37.4 °F 71% 29.96 in 10.0 mi WNW 24.2 mph 34.5 mph N/A   Mostly Cloudy
4:52 AM 46.9 °F - 37.9 °F 71% 29.98 in 10.0 mi WNW 21.9 mph 34.5 mph N/A   Overcast
5:52 AM 46.0 °F 38.0 °F 37.0 °F 71% 30.01 in 10.0 mi WNW 21.9 mph 33.4 mph N/A   Overcast
6:26 AM 44.6 °F 36.9 °F 35.6 °F 71% 30.02 in 10.0 mi West 18.4 mph 24.2 mph N/A   Scattered Clouds
6:52 AM 43.0 °F 34.8 °F 35.1 °F 74% 30.02 in 10.0 mi WNW 18.4 mph - N/A   Clear
7:52 AM 43.0 °F 34.0 °F 33.1 °F 68% 30.08 in 10.0 mi WNW 21.9 mph 34.5 mph N/A   Mostly Cloudy
8:52 AM 43.0 °F 33.5 °F 34.0 °F 71% 30.09 in 10.0 mi West 24.2 mph 32.2 mph N/A   Overcast
9:52 AM 44.1 °F 34.4 °F 33.1 °F 65% 30.10 in 10.0 mi WNW 27.6 mph 32.2 mph N/A   Overcast
10:52 AM 46.0 °F 37.0 °F 32.0 °F 58% 30.12 in 10.0 mi NW 27.6 mph 33.4 mph N/A   Overcast
11:26 AM 48.2 °F - 32.0 °F 54% 30.12 in 10.0 mi NW 23.0 mph 35.7 mph N/A   Mostly Cloudy
11:52 AM 48.9 °F - 32.0 °F 52% 30.15 in 10.0 mi NW 28.8 mph 35.7 mph N/A   Mostly Cloudy
12:52 PM 52.0 °F - 30.9 °F 45% 30.16 in 10.0 mi WNW 26.5 mph 33.4 mph N/A   Mostly Cloudy
1:52 PM 53.1 °F - 30.9 °F 43% 30.17 in 10.0 mi NW 24.2 mph 33.4 mph N/A   Partly Cloudy
2:52 PM 53.1 °F - 30.9 °F 43% 30.18 in 10.0 mi NW 24.2 mph 32.2 mph N/A   Partly Cloudy
3:52 PM 52.0 °F - 30.0 °F 43% 30.19 in 10.0 mi NW 21.9 mph 31.1 mph N/A   Clear
4:52 PM 51.1 °F - 28.9 °F 43% 30.20 in 10.0 mi NW 23.0 mph 28.8 mph N/A   Partly Cloudy
5:52 PM 48.9 °F - 28.9 °F 46% 30.22 in 10.0 mi NW 21.9 mph 27.6 mph N/A   Clear
6:52 PM 46.9 °F - 28.0 °F 48% 30.24 in 10.0 mi NW 15.0 mph - N/A   Mostly Cloudy
7:52 PM 46.0 °F 38.0 °F 28.0 °F 50% 30.26 in 10.0 mi NW 21.9 mph 27.6 mph N/A   Overcast
8:52 PM 45.0 °F 36.9 °F 28.0 °F 52% 30.26 in 10.0 mi NW 20.7 mph - N/A   Overcast
10:52 PM 42.1 °F 33.9 °F 26.1 °F 53% 30.26 in 10.0 mi NW 17.3 mph - N/A   Partly Cloudy
11:52 PM 39.9 °F 32.1 °F 26.1 °F 58% 30.27 in 10.0 mi NW 13.8 mph - N/A   Partly Cloudy